User: anonymous   Login
Location: *
(35.8942°N, 23.3025°E)
Time: 06:17:13
(UTC+00:00)
Language:

Gurwin Techsat 1B - Orbit

View from above orbital plane
View from above orbital plane
View from above satellite
View from above satellite

Ground track
Ground track

The orbit data is extracted from the following two-line orbital elements,

1 25397U 98043D   24104.87705876  .00000173  00000-0  95340-4 0  9995
2 25397  98.9162  70.6621 0001516  30.9932 329.1335 14.24014609338263
Epoch (UTC): 13 April 2024 21:02:57
Eccentricity: 0.0001516
inclination: 98.9162°
perigee height: 811 km
apogee height: 813 km
right ascension of ascending node: 70.6621°
argument of perigee: 30.9932°
revolutions per day: 14.24014609
mean anomaly at epoch: 329.1335°
orbit number at epoch: 33826

The dashed part of the orbit path shows where the satellite is in the earth's shadow,  

DLR